Orbital Elements at Epoch 2459200.5 (2020-Dec-17.0) TDB
Reference: JPL 17 (heliocentric ecliptic J2000)
Element | Value | Uncertainty (1-sigma) | Units |
e | .1138302219467728 | 4.4099e-08 | |
a | 3.06801804141784 | 2.421e-08 | au |
q | 2.718784866826544 | 1.3453e-07 | au |
i | 14.376822391796 | 5.0471e-06 | deg |
node | 88.60448593344461 | 1.8945e-05 | deg |
peri | 146.579435626374 | 3.0738e-05 | deg |
M | 85.04693423041422 | 2.2371e-05 | deg |
tp | 2458736.795348270566 (2019-Sep-10.29534827) | 0.00012166 | TDB |
period | 1962.841766527756 5.37 | 2.3234e-05 6.361e-08 | d yr |
n | .1834075502870696 | 2.171e-09 | deg/d |
Q | 3.417251216009136 | 2.6966e-08 | au |
|
| | Orbit Determination Parameters
Additional Information
|